Zurück zum Katalog

STARLINK-32103

AktivKommunikationVLEO
NORAD 59688·PAYLOAD·🇺🇸 United States

Gestartet May 8, 2024 von Cape Canaveral Space Force Station

Loading…

Nächste Überflüge (nächste 24 Stunden)

TLE

AktuellSource: CelesTrak SupGP

Epoche: Sep 15, 2026, 02:03 UTC

1 59688C 24086G   26258.08590278 -.00017003  00000+0 -61595-3 0  2587
2 59688  43.0043  59.7256 0001713 268.4596 318.1780 15.27580384    10

Verfolge STARLINK-32103 in Echtzeit mit AllMySat

Download on the App Store